Lid_Strength_Index
2 6 5 6 12 12 14 11 9 8 10 7 6 7 8 7 9 12 2 2 2 0 -0 -0 -1 -1 -1 -1 -1 -1 -1 -1 -1 -1 -1 -1 -1 -1 -1 -1 -1 -1 -1 -2 -1 -1 -1 -1 -1
3 5 7 9 12 15 13 10 10 8 8 6 6 6 7 9 5 4 3 1 -0 0 -0 -0 -1 -1 -1 -1 -1 -1 -1 -1 -1 -1 -1 -1 -1 -1 -1 -2 -1 -1 -2 -2 -1 -1 -1 -1 -1
2 3 10 11 12 15 13 11 9 7 6 6 8 5 6 7 4 3 2 0 0 0 -0 -0 -1 -1 -1 -1 -1 -1 -1 -1 -1 -1 -1 -1 -1 -1 -1 -1 -1 -1 -1 -1 -1 -1 -1 -1 -1
5 8 9 12 12 10 13 11 9 8 5 5 6 8 5 4 3 3 1 0 0 0 -0 -1 -1 -1 -1 -1 -1 -1 -1 -1 -1 -1 -1 -1 -1 -1 -1 -1 -1 -1 -1 -1 -1 -1 -1 -1 -1
6 10 12 12 12 10 9 9 8 9 6 5 5 7 7 3 1 1 1 0 1 0 -0 -0 -1 -1 -1 -1 -1 -1 -1 -1 -1 -1 -1 -1 -1 -1 -1 -1 -1 -1 -1 -1 -1 -1 -1 -1 -1
10 10 14 13 10 9 11 9 9 8 8 7 6 7 7 3 2 1 1 1 -0 0 0 -0 -1 -1 -1 -1 -1 -1 -1 -1 -1 -1 -1 -1 -1 -1 -1 -1 -1 -1 -1 -1 -1 -1 -1 -1 -1
11 12 14 14 11 9 10 9 10 9 9 8 6 9 8 7 6 2 1 0 1 0 0 0 -0 -1 -1 -1 -1 -1 -1 -1 -1 -1 -1 -1 -1 -1 -1 -1 -1 -1 -1 -1 -1 -1 -1 -1 -1
10 11 12 13 12 13 8 8 9 8 8 6 5 9 10 7 5 6 2 1 1 0 0 0 0 -0 0 -0 -1 -1 -1 -1 -1 -1 -1 -1 -1 -1 -1 -1 -1 -1 -1 -1 -1 -1 -1 -1 -1
9 12 14 11 11 11 9 10 8 7 7 6 6 6 6 3 3 6 7 6 1 1 1 0 -0 0 1 0 -1 -1 -1 -1 -1 -1 -1 -1 0 -0 -1 -1 -1 -1 -1 -1 -1 -1 -2 -2 -2
9 12 11 9 9 11 8 9 8 8 6 6 5 5 4 3 3 6 6 6 6 5 5 2 2 2 1 0 0 0 -0 -0 -0 -0 -0 -0 0 0 -1 -1 -1 -1 -1 -1 -1 -1 -2 -2 0
10 11 8 8 7 7 8 7 7 7 8 6 6 5 4 3 4 4 5 5 6 5 3 4 3 3 4 0 0 1 1 1 0 0 0 0 -0 -0 -0 -0 -0 -0 -1 -0 -1 -0 -0 0 0
11 8 7 8 7 8 9 7 7 7 8 5 5 5 5 5 4 4 4 4 3 3 2 1 2 3 2 2 3 2 0 1 1 1 1 -0 0 0 0 1 0 -0 -0 0 0 0 0 0 0
10 8 7 7 8 8 6 7 7 8 6 5 4 4 5 5 4 4 4 2 2 2 1 1 1 0 0 0 1 1 2 2 0 1 0 0 0 1 0 1 0 0 -0 -0 0 0 0 0 0
8 8 8 8 8 8 8 7 7 7 5 5 5 5 6 5 5 5 3 3 2 2 2 1 1 0 0 0 0 0 0 1 2 0 0 0 0 0 1 0 1 0 0 -0 0 1 1 1 0
8 10 9 9 8 8 7 9 8 6 6 6 6 5 5 5 5 5 3 3 2 2 1 2 1 0 0 0 0 0 0 0 2 2 0 0 0 0 0 1 1 0 1 1 1 1 1 1 1
10 11 13 9 8 7 8 12 7 6 6 7 6 5 5 5 5 4 3 2 2 2 2 1 0 1 1 1 0 0 0 1 0 0 1 -0 0 0 0 1 1 0 1 1 1 1 2 1 1
11 14 12 10 8 8 9 11 7 6 6 7 7 6 6 6 5 3 2 2 2 2 2 1 1 1 1 1 1 0 1 1 0 1 1 1 -1 0 0 0 0 0 1 1 1 1 2 2 2
13 13 12 11 9 9 10 10 8 7 7 7 7 7 6 6 5 3 2 2 2 2 1 1 1 1 1 1 1 2 1 1 1 1 0 0 0 -1 0 0 0 1 2 2 1 2 2 2 2
10 11 11 9 8 9 10 10 9 8 8 8 8 7 7 5 3 3 2 2 2 2 2 2 2 2 1 2 2 2 3 1 1 2 1 1 -0 2 0 0 0 0 1 1 1 3 4 2 1
10 11 11 9 8 9 10 10 9 8 8 7 7 7 7 5 4 3 3 2 2 2 2 2 2 2 1 2 2 1 1 1 1 1 1 1 2 2 1 0 2 1 1 1 1 1 3 2 1
10 11 11 11 10 9 10 12 10 8 7 6 8 7 7 6 5 4 3 3 3 2 2 2 2 1 1 1 1 1 1 2 2 1 1 0 0 1 3 0 0 1 1 1 1 1 3 3 2
12 8 9 10 12 15 11 15 11 9 8 7 8 8 7 7 6 4 4 3 3 2 2 2 2 2 1 1 2 2 3 3 3 2 1 0 0 0 1 1 0 1 3 4 3 1 1 2 3
10 8 10 10 12 13 12 14 11 10 10 8 7 6 6 5 5 4 4 3 3 3 3 1 2 2 2 1 2 2 3 3 2 2 1 1 1 0 -0 0 0 2 3 1 1 1 1 2 3
7 9 10 11 13 16 13 13 14 11 10 8 7 6 5 5 4 4 4 4 4 2 2 2 2 1 1 2 1 2 2 2 3 2 2 1 1 1 1 0 1 2 1 1 1 1 1 1 1
9 12 17 18 18 17 11 13 13 9 8 8 8 7 6 5 5 5 5 5 4 4 2 2 2 2 1 2 2 2 2 2 2 3 2 2 2 1 1 1 1 2 4 3 2 2 1 1 1
11 12 16 20 20 16 11 15 13 8 7 6 6 6 5 5 5 5 5 4 4 3 2 2 2 2 1 2 2 1 1 2 2 3 3 2 1 1 1 1 1 1 2 3 2 2 1 1 1
10 13 10 14 14 17 14 11 9 7 7 7 7 6 6 6 6 5 5 4 3 3 3 2 2 2 2 2 2 2 2 2 2 1 2 2 1 1 0 1 1 1 0 1 2 2 1 1 1
10 9 14 15 19 20 16 15 14 10 9 8 7 7 6 5 5 4 4 3 3 2 3 3 3 3 2 2 2 2 2 2 2 2 2 1 1 1 1 1 1 1 1 1 2 2 1 1 2
10 12 12 13 14 20 20 17 9 10 9 9 8 7 7 6 5 5 4 3 3 3 3 3 3 3 3 3 3 3 2 2 1 1 2 1 1 1 1 1 1 1 1 1 2 4 2 2 2
9 10 11 17 16 14 16 16 8 8 7 7 7 6 7 6 5 4 4 4 3 3 3 3 3 3 2 2 3 3 2 2 3 3 2 2 2 1 1 1 1 1 1 1 1 3 3 2 2